sat.trackr.live / text

‹ back to catalog

YUNHAI-2 01C

NORAD 43911 · 2018-112C

PAYLOAD ACTIVE UNKNOWN

§ Identity

Operator
Country
PRC
Launch date
2018-12-29
Launch site
JSC
Launch vehicle
Mass (kg)
RCS (m²)

External: N2YO · Heavens-Above · Gunter

§ Orbital elements

Epoch: 2026-09-20T04:28:34.801824Z

Period
100.77 min
Inclination
50.0125°
Eccentricity
0.0000531
Mean motion
14.29028964 rev/d
Perigee alt
794.6 km
Apogee alt
795.4 km
Semi-major
7,173.1 km
B*
3.3164e-5
RAAN
304.1973°
Arg perigee
140.8547°
Mean anomaly
219.2407°
Rev number
40,537

§ Raw data

YUNHAI-2 01C1 43911U 18112C   26263.18651391 -.00000077  00000+0  33164-4 0  99992 43911  50.0125 304.1973 0000531 140.8547 219.2407 14.29028964405377

JSON: /api/v1/satellites/43911 · /tle

For live sub-satellite position, see the globe view (requires WebGL).

§ Visibility from observer

Set your observer location to see the next 7 days of passes ≥ 10°. The values pass through the URL so the page stays shareable.

No JS? Fill the form by hand. The geolocation button needs JavaScript.